Location: Austin
(30.3000°N, 97.7500°W)
Time: 02:35:43
(UTC-05:00)

CSL-04 Debris - Pass Details

Date: 11 June 2024
Orbit: 822 x 845 km, 98.8° (Epoch: 22 June)

Event Time Altitude Azimuth Distance (km) Brightness Sun altitude
Exits shadow 21:41:23 - 171° (S) 2,606 6.3 -13.3°
Reaches altitude 10° 21:41:48 10° 171° (S) 2,444 6.2 -13.3°
Maximum altitude 21:47:13 77° 257° (WSW) 858 4.3 -14.2°
Drops below altitude 10° 21:52:38 10° 344° (NNW) 2,441 7.4 -15.2°
Sets 21:54:59 0° 346° (NNW) 3,374 8.2 -15.6°
